Location: Cisewo
(53.3833°N, 14.9000°E)
Time: 12:19:33
(UTC+00:00)

Meteor 1-20 Rocket - Pass Details

Date: 18 April 2021
Orbit: 819 x 892 km, 81.2° (Epoch: 16 May)

Event Time Altitude Azimuth Distance (km) Brightness Sun altitude
Rises 22:20:13 0° 345° (NNW) 3,513 8.8 -24.9°
Reaches altitude 10° 22:22:42 10° 343° (NNW) 2,564 7.7 -25.0°
Maximum altitude 22:28:31 71° 261° (W) 931 4.3 -25.1°
Enters shadow 22:29:24 60° 209° (SSW) 999 4.2 -25.1°
